Tracking 22124 objects as of 23-Jan-2021
HD Live streaming from Space Station
objects crossing your sky now

CZ-4B DEB

Track CZ-4B DEB now!
10-day predictions


NORAD ID: 46472
Int'l Code: 2020-066D
Perigee: 903.7 km
Apogee: 957.9 km
Inclination: 65.9 °
Period: 103.5 minutes
Semi major axis: 7301 km
RCS: Unknown
Launch date: September 21, 2020
Source: People's Republic of China (PRC)
Launch site: Jiuquan Satellite Launch Center, China (JSC)

Note: This is SATELLITE DEBRIS
aabbcc
Your satellite tracking list
Your tracking list is empty




NASA's NSSDC Master Catalog

Two Line Element Set (TLE):
1 46472U 20066D   21022.84185859 -.00000050  00000-0  26395-4 0  9997
2 46472  65.9127  78.3512 0037150 310.7878  48.9972 13.91420196 17206
Source of the keplerian elements: AFSPC